Back to catalog

STARLINK-36061

AliveCommunicationsVLEO
NORAD 66847·PAYLOAD·🇺🇸 United States

Launched Dec 2, 2025 from Vandenberg Space Force Base

Loading…

Next Passes (next 24 hours)

TLE

FreshSource: CelesTrak SupGP

Epoch: Sep 14, 2026, 15:41 UTC

1 66847C 25280AC  26257.65395833  .00014078  00000+0  11793-2 0  2571
2 66847  70.0009 218.1701 0003354 266.8996 207.3378 14.98341144    10

Track STARLINK-36061 in real time with AllMySat

Download on the App Store